Home > Time Zones > World Clock > Weather > Spain > Palma > Past weeks

Flag for Spain Weather past 2 weeks in Palma, Majorca, Spain

Now
61 °F

Passing clouds.


Feels Like: 61 °F
Forecast: 51 / 58 °F
Wind: 21 mph from West

Location: Palma De Mallorca / Son San Juan

Current Time: Jan 30, 2015 at 4:05:32 AM

Latest Report: Jan 30, 2015 at 3:30 AM


Visibility: N/A

Pressure: 29.42 "Hg

Humidity: 68%

Dew point: 50 °F

Location of PalmaLocation

Historic Weather in Palma — Graph

°F

Palma temperature yesterday

Maximum temperature yesterday: 61 °F (at 10:00 PM)
Minimum temperature yesterday: 37 °F (at 1:30 AM)
Average temperature yesterday: 51 °F

Past Weeks' High & Low Weather Summary

 TemperatureHumidityPressure
High61 °F (Jan 15, 3:30 PM)100% (Jan 15, 2:00 AM)30.33 "Hg (Jan 15, 2:00 AM)
Low30 °F (Jan 18, 5:30 AM)32% (Jan 25, 5:30 AM)29.42 "Hg (Jan 30, 2:30 AM)
Average49 °F80%29.99 "Hg
* Reported Jan 15 2:00 AM — Jan 30 2:30 AM, Palma, Weather by CustomWeather, © 2014

Note: Actual official high and low records may vary slightly from our data, if they occured in-between our weather recording intervals... More about our weather records

Advertising

Palma weather history for previous 24 hours

 ConditionsComfort  
Time TempWeatherWind HumidityBarometerVisibility
2:30 AM
Jan 30
59 °FPassing clouds.22 mph72%29.42 "HgN/A
2:00 AM59 °FPassing clouds.23 mph72%29.45 "HgN/A
1:30 AM59 °FPassing clouds.24 mph72%29.45 "HgN/A
1:00 AM59 °FPassing clouds.22 mph72%29.45 "HgN/A
12:30 AM59 °FPassing clouds.26 mph72%29.47 "HgN/A
12:00 AM61 °FPassing clouds.26 mph63%29.47 "HgN/A
11:30 PM
Jan 29
61 °FPassing clouds.25 mph63%29.50 "HgN/A
11:00 PM61 °FPassing clouds.23 mph63%29.50 "HgN/A
10:30 PM61 °FPassing clouds.23 mph63%29.53 "HgN/A
10:00 PM61 °FPassing clouds.23 mph68%29.53 "HgN/A
9:30 PM57 °FPassing clouds.14 mph82%29.56 "HgN/A
9:00 PM57 °FPassing clouds.15 mph82%29.56 "HgN/A
8:30 PM57 °FPassing clouds.13 mph88%29.56 "HgN/A
8:00 PM59 °FPassing clouds.12 mph82%29.59 "HgN/A
7:30 PM57 °FPassing clouds.10 mph82%29.59 "HgN/A
7:00 PM57 °FPassing clouds.9 mph82%29.62 "HgN/A
6:30 PM57 °FPassing clouds.9 mph82%29.62 "HgN/A
6:00 PM57 °FPassing clouds.10 mph82%29.65 "HgN/A
5:30 PM57 °FPassing clouds.12 mph82%29.65 "HgN/A
5:00 PM59 °FPassing clouds.15 mph68%29.65 "HgN/A
4:30 PM59 °FPassing clouds.16 mph68%29.68 "HgN/A
4:00 PM59 °FPassing clouds.13 mph72%29.71 "HgN/A
3:30 PM59 °FPassing clouds.15 mph68%29.74 "HgN/A
3:00 PM59 °FPassing clouds.16 mph68%29.74 "HgN/A
2:30 PM59 °FPassing clouds.18 mph72%29.77 "HgN/A
2:00 PM59 °FPassing clouds.17 mph77%29.80 "HgN/A
1:30 PM59 °FPassing clouds.15 mph72%29.83 "HgN/A
1:00 PM59 °FPassing clouds.15 mph77%29.83 "HgN/A
12:30 PM59 °FPassing clouds.20 mph77%29.86 "HgN/A
12:00 PM57 °FPassing clouds.17 mph82%29.86 "HgN/A
11:30 AM59 °FPassing clouds.17 mph72%29.89 "HgN/A
11:00 AM59 °FPassing clouds.16 mph72%29.89 "HgN/A
10:30 AM57 °FPassing clouds.15 mph77%29.89 "HgN/A
10:00 AM55 °FPassing clouds.13 mph88%29.89 "HgN/A
9:30 AM54 °FPassing clouds.9 mph94%29.92 "HgN/A
9:00 AM46 °FPassing clouds.1 mph100%29.92 "HgN/A
8:30 AM41 °FScattered clouds.3 mph100%29.95 "HgN/A
8:00 AM41 °FScattered clouds.No wind93%29.95 "HgN/A
7:30 AM39 °FPassing clouds.No wind100%29.95 "HgN/A
7:00 AM39 °FPassing clouds.1 mph93%29.95 "HgN/A
6:30 AM37 °FPassing clouds.2 mph100%29.95 "HgN/A
6:00 AM37 °FPassing clouds.No wind100%29.98 "HgN/A
5:30 AM37 °FPassing clouds.1 mph93%29.98 "HgN/A
5:00 AM37 °FPassing clouds.1 mph100%29.98 "HgN/A
4:30 AM37 °FPassing clouds.No wind100%30.01 "HgN/A
4:00 AM37 °FPassing clouds.No wind93%30.04 "HgN/A
Weather by CustomWeather, © 2014

See weather overviewHow to use our weather pages